Regional Weather Roundup
Issued by NWS

Home | Current Version | Previous Version | Graphics & Text | Print | Product List | Glossary On
Versions: 1 2 3 4 5 6 7 8 9 10 11 12 13 14 15 16 17 18 19 20 21 22 23 24 25 26 27 28 29 30 31 32 33 34 35 36 37 38 39 40 41 42 43 44 45 46 47 48 49 50
000
ASUS43 KTOP 160508
RWRKS

WEATHER ROUNDUP FOR KANSAS
NATIONAL WEATHER SERVICE GOODLAND KS
1200 AM CDT WED AUG 16 2017

NOTE:  "FAIR" INDICATES FEW OR NO CLOUDS BELOW 12,000 FEET WITH NO
SIGNIFICANT WEATHER AND/OR OBSTRUCTIONS TO VISIBILITY.

KSZ001>006-013>018-027>032-041>047-160600-
NORTHWEST KANSAS

CITY           SKY/WX    TMP DP  RH WIND       PRES   REMARKS
GOODLAND       PTCLDY    72  64  76 SW8       29.86R
HAYS           PTCLDY    75  70  84 SE10      29.82R
HILL CITY      CLOUDY    77  68  73 SE10      29.80F
RUSSELL        CLEAR     75  70  84 SE13      29.81R
$$

KSZ061>065-074>080-084>089-160600-
SOUTHWEST KANSAS

CITY           SKY/WX    TMP DP  RH WIND       PRES   REMARKS
DODGE CITY     PTCLDY    75  66  73 SE14      29.83S
ELKHART          N/A     70  58  66 SW7         N/A
GARDEN CITY    CLOUDY    74  65  73 SE13      29.80S
GREAT BEND     PTCLDY    74  71  91 SE13      29.82S
LIBERAL        CLOUDY    77  68  73 S10       29.80F
$$

KSZ066>073-081>083-090>101-160600-
SOUTHEAST KANSAS

CITY           SKY/WX    TMP DP  RH WIND       PRES   REMARKS
CHANUTE        CLOUDY    75  70  84 S7        29.87S
COFFEYVILLE    CLOUDY    73  71  93 S6        29.86S
HUTCHINSON     PTCLDY    75  72  90 SE9       29.83R
MEDICINE LODGE   N/A     74  70  87 SE8       29.81S
NEWTON         CLOUDY    75  72  90 SE10      29.85S
PARSONS        CLOUDY    74  70  87 CALM      29.88S
WICHITA INTL   PTCLDY    74  71  91 S9        29.84R
WICHITA JABRA  CLOUDY    74  70  87 S12       29.84S
WICHITA MCCONL CLOUDY    74  69  84 S10       29.84S
WINFIELD       CLOUDY    72  69  90 SE5       29.86R
$$

KSZ007>012-019>026-033>040-048>060-102>105-160600-
NORTHEAST KANSAS

CITY           SKY/WX    TMP DP  RH WIND       PRES   REMARKS
CONCORDIA      CLOUDY    76  71  85 S13       29.81F
EMPORIA        CLOUDY    77  73  87 SE12      29.85F
LAWRENCE       CLOUDY    76  73  91 E6        29.85F
MANHATTAN      CLOUDY    77  73  87 E3        29.82F
OLATHE IND     CLOUDY    76  71  85 SE6       29.88S
OLATHE EXE     CLOUDY    76  72  87 SE7       29.88S
SALINA         CLOUDY    79  71  76 SE7       29.82S
TOPEKA BILLARD CLOUDY    78  74  87 SE7       29.84F
TOPEKA FORBES  CLOUDY    77  74  90 E7        29.85F
$$




USA.gov is the U.S. government's official web portal to all federal, state and local government web resources and services.